Location: Bo?a Wola
(50.4192°N, 19.7966°E)
Time: 14:09:45
(UTC+00:00)

CZ-4C R/B - Pass Details

Date: 21 September 2024
Orbit: 519 x 1471 km, 63.4° (Epoch: 11 October)

Event Time Altitude Azimuth Distance (km) Brightness Sun altitude
Rises 03:36:25 0° 309° (NW) 3,444 5.0 -8.7°
Reaches altitude 10° 03:38:56 10° 319° (NW) 2,646 4.5 -8.3°
Maximum altitude 03:44:41 35° 24° (NNE) 1,705 4.2 -7.4°
Drops below altitude 10° 03:51:44 10° 88° (E) 3,268 7.1 -6.3°
Sets 03:55:10 0° 97° (E) 4,362 7.8 -5.7°
